DLH7VY EGLL-EDDM

Flight info

Callsign DLH7VY
Flight time 1h 23m
Altitude 39000
Route DET L6 DVR UL9 KONAN UL607 SPI DCT MOVUM T109 HAREM T104 ROKIL ROKIL1B
Aircraft A20N/M-SDE2E3FGHIRWXY/LB1

Departure

Time 2026-05-05 16:23
Airport London Heathrow Airport (EGLL)

Arrival

Time 2026-05-05 17:46
Airport Munich Airport (EDDM)
Time Latitude Longitude Altitude Speed Heading
2026-05-05 15:47 51.46952 -0.44727 77 ft 0 kts 265°
2026-05-05 16:08 51.46953 -0.44712 86 ft 4 kts 266°
2026-05-05 16:08 51.46955 -0.44669 86 ft 4 kts 266°
2026-05-05 16:08 51.46957 -0.44627 87 ft 3 kts 266°
2026-05-05 16:09 51.46960 -0.44592 87 ft 4 kts 246°
2026-05-05 16:09 51.46976 -0.44563 90 ft 4 kts 197°
2026-05-05 16:09 51.46996 -0.44558 88 ft 0 kts 180°
2026-05-05 16:11 51.46945 -0.44558 88 ft 15 kts 180°
2026-05-05 16:12 51.46814 -0.44556 87 ft 18 kts 179°
2026-05-05 16:12 51.46751 -0.44841 87 ft 24 kts 269°
2026-05-05 16:13 51.46748 -0.45843 86 ft 32 kts 270°
2026-05-05 16:13 51.46746 -0.46191 90 ft 28 kts 269°
2026-05-05 16:13 51.46748 -0.46515 88 ft 29 kts 269°
2026-05-05 16:14 51.46746 -0.47191 88 ft 31 kts 270°
2026-05-05 16:14 51.46743 -0.47842 86 ft 29 kts 269°
2026-05-05 16:15 51.46743 -0.48113 86 ft 0 kts 270°
2026-05-05 16:17 51.46743 -0.48145 86 ft 8 kts 270°
2026-05-05 16:17 51.46742 -0.48320 87 ft 24 kts 269°
2026-05-05 16:18 51.46635 -0.48470 87 ft 15 kts 180°
2026-05-05 16:18 51.46588 -0.48470 87 ft 0 kts 179°
2026-05-05 16:22 51.46506 -0.48468 88 ft 12 kts 169°
2026-05-05 16:22 51.46478 -0.48376 88 ft 1 kts 90°
2026-05-05 16:23 51.46479 -0.47479 85 ft 102 kts 89°
2026-05-05 16:23 51.46482 -0.46050 87 ft 152 kts 91°
2026-05-05 16:23 51.46471 -0.42520 1197 ft 157 kts 86°
2026-05-05 16:24 51.46289 -0.40800 1828 ft 164 kts 111°
2026-05-05 16:24 51.45670 -0.39148 2247 ft 181 kts 121°
2026-05-05 16:24 51.44123 -0.35415 3143 ft 223 kts 115°
2026-05-05 16:25 51.43489 -0.33022 3780 ft 244 kts 106°
2026-05-05 16:25 51.42562 -0.27396 5374 ft 271 kts 101°
2026-05-05 16:25 51.42179 -0.24474 6461 ft 272 kts 100°
2026-05-05 16:26 51.41416 -0.18425 8444 ft 282 kts 102°
2026-05-05 16:26 51.40563 -0.12162 10306 ft 295 kts 102°
2026-05-05 16:27 51.40103 -0.08836 10757 ft 317 kts 102°
2026-05-05 16:27 51.39610 -0.05283 11156 ft 338 kts 102°
2026-05-05 16:27 51.39092 -0.01557 11963 ft 344 kts 102°
2026-05-05 16:27 51.38568 0.02201 12892 ft 347 kts 102°
2026-05-05 16:28 51.38048 0.05934 13780 ft 350 kts 102°
2026-05-05 16:28 51.37506 0.09811 14584 ft 354 kts 102°
2026-05-05 16:28 51.36971 0.13630 15327 ft 359 kts 102°
2026-05-05 16:28 51.36420 0.17554 16073 ft 363 kts 103°
2026-05-05 16:29 51.35861 0.21522 16816 ft 368 kts 103°
2026-05-05 16:29 51.35292 0.25546 17428 ft 374 kts 103°
2026-05-05 16:29 51.34717 0.29608 17549 ft 374 kts 103°
2026-05-05 16:29 51.34141 0.33660 17793 ft 375 kts 103°
2026-05-05 16:30 51.33561 0.37725 17912 ft 375 kts 103°
2026-05-05 16:30 51.32980 0.41796 18036 ft 376 kts 103°
2026-05-05 16:30 51.32395 0.45877 18094 ft 377 kts 103°
2026-05-05 16:30 51.31809 0.49959 18090 ft 377 kts 103°
2026-05-05 16:31 51.31227 0.54003 18399 ft 381 kts 103°
2026-05-05 16:31 51.30630 0.58140 19145 ft 381 kts 103°
2026-05-05 16:31 51.29952 0.62243 19820 ft 384 kts 107°
2026-05-05 16:31 51.29198 0.66357 20444 ft 388 kts 107°
2026-05-05 16:32 51.28437 0.70514 21070 ft 392 kts 107°
2026-05-05 16:32 51.27669 0.74710 21680 ft 396 kts 108°
2026-05-05 16:32 51.26893 0.78940 22293 ft 399 kts 108°
2026-05-05 16:32 51.26107 0.83216 22868 ft 404 kts 108°
2026-05-05 16:33 51.25311 0.87537 23098 ft 406 kts 108°
2026-05-05 16:33 51.24511 0.91875 23325 ft 408 kts 108°
2026-05-05 16:33 51.23705 0.96223 23587 ft 410 kts 108°
2026-05-05 16:33 51.22903 1.00545 23820 ft 412 kts 108°
2026-05-05 16:34 51.22086 1.04932 24047 ft 413 kts 108°
2026-05-05 16:34 51.21266 1.09328 24282 ft 415 kts 108°
2026-05-05 16:34 51.20442 1.13737 24520 ft 415 kts 108°
2026-05-05 16:34 51.19613 1.18159 24764 ft 417 kts 108°
2026-05-05 16:35 51.18782 1.22586 25002 ft 418 kts 108°
2026-05-05 16:35 51.17944 1.27035 25247 ft 419 kts 109°
2026-05-05 16:35 51.17105 1.31483 25487 ft 421 kts 109°
2026-05-05 16:35 51.16390 1.35954 25731 ft 423 kts 102°
2026-05-05 16:36 51.16024 1.40625 25974 ft 427 kts 96°
2026-05-05 16:36 51.15814 1.45344 26231 ft 428 kts 96°
2026-05-05 16:36 51.15593 1.50087 26487 ft 429 kts 96°
2026-05-05 16:36 51.15366 1.54838 26738 ft 431 kts 96°
2026-05-05 16:37 51.15134 1.59596 26998 ft 433 kts 96°
2026-05-05 16:37 51.14898 1.64384 27253 ft 434 kts 96°
2026-05-05 16:37 51.14659 1.69190 27521 ft 436 kts 97°
2026-05-05 16:37 51.14418 1.74004 27790 ft 437 kts 97°
2026-05-05 16:38 51.14174 1.78836 28054 ft 439 kts 97°
2026-05-05 16:38 51.13932 1.83609 28324 ft 440 kts 97°
2026-05-05 16:38 51.13682 1.88481 28599 ft 441 kts 97°
2026-05-05 16:38 51.13431 1.93349 28880 ft 443 kts 97°
2026-05-05 16:39 51.13175 1.98251 29165 ft 445 kts 97°
2026-05-05 16:39 51.12917 2.03163 29437 ft 446 kts 97°
2026-05-05 16:39 51.12656 2.08084 29723 ft 448 kts 97°
2026-05-05 16:39 51.12392 2.13038 30000 ft 450 kts 97°
2026-05-05 16:40 51.12125 2.18003 30245 ft 451 kts 97°
2026-05-05 16:40 51.11854 2.22984 30493 ft 453 kts 97°
2026-05-05 16:40 51.11581 2.27983 30738 ft 455 kts 97°
2026-05-05 16:40 51.11308 2.32933 30982 ft 455 kts 97°
2026-05-05 16:41 51.11029 2.37958 31232 ft 455 kts 98°
2026-05-05 16:41 51.10749 2.42968 31488 ft 454 kts 98°
2026-05-05 16:41 51.10467 2.47977 31746 ft 454 kts 98°
2026-05-05 16:41 51.10183 2.52973 32003 ft 454 kts 98°
2026-05-05 16:42 51.09896 2.57970 32265 ft 453 kts 98°
2026-05-05 16:42 51.09583 2.62951 32525 ft 452 kts 101°
2026-05-05 16:42 51.08994 2.67847 32797 ft 449 kts 107°
2026-05-05 16:42 51.08141 2.72608 33067 ft 447 kts 109°
2026-05-05 16:43 51.07286 2.77284 33335 ft 447 kts 109°
2026-05-05 16:43 51.06424 2.82037 33609 ft 447 kts 109°
2026-05-05 16:43 51.05564 2.86778 33885 ft 446 kts 109°
2026-05-05 16:43 51.04704 2.91509 34121 ft 446 kts 110°
2026-05-05 16:44 51.03838 2.96249 34360 ft 447 kts 110°
2026-05-05 16:44 51.02970 3.00988 34589 ft 447 kts 110°
2026-05-05 16:44 51.02098 3.05737 34830 ft 447 kts 110°
2026-05-05 16:44 51.01224 3.10479 35064 ft 448 kts 110°
2026-05-05 16:45 51.00359 3.15166 35306 ft 448 kts 110°
2026-05-05 16:45 50.99480 3.19913 35547 ft 448 kts 110°
2026-05-05 16:45 50.98599 3.24659 35791 ft 449 kts 110°
2026-05-05 16:45 50.97714 3.29409 36039 ft 449 kts 110°
2026-05-05 16:46 50.96828 3.34159 36294 ft 449 kts 110°
2026-05-05 16:46 50.95940 3.38902 36546 ft 449 kts 109°
2026-05-05 16:46 50.95049 3.43653 36807 ft 449 kts 109°
2026-05-05 16:46 50.94158 3.48389 37064 ft 448 kts 109°
2026-05-05 16:47 50.93277 3.53067 37328 ft 448 kts 109°
2026-05-05 16:47 50.92385 3.57786 37597 ft 447 kts 109°
2026-05-05 16:47 50.91493 3.62492 37870 ft 446 kts 109°
2026-05-05 16:47 50.90600 3.67188 38149 ft 444 kts 110°
2026-05-05 16:48 50.89700 3.71865 38430 ft 443 kts 110°
2026-05-05 16:48 50.88800 3.76519 38668 ft 441 kts 110°
2026-05-05 16:48 50.87903 3.81152 38802 ft 442 kts 110°
2026-05-05 16:48 50.86996 3.85821 38858 ft 445 kts 110°
2026-05-05 16:49 50.85158 3.95262 38871 ft 453 kts 110°
2026-05-05 16:49 50.83311 4.04719 38872 ft 453 kts 110°
2026-05-05 16:50 50.81445 4.14230 38870 ft 453 kts 110°
2026-05-05 16:50 50.79567 4.23745 38871 ft 453 kts 110°
2026-05-05 16:51 50.77684 4.33238 38881 ft 453 kts 110°
2026-05-05 16:51 50.75807 4.42657 38881 ft 452 kts 110°
2026-05-05 16:52 50.73915 4.52105 38878 ft 452 kts 110°
2026-05-05 16:52 50.72011 4.61573 38853 ft 452 kts 110°
2026-05-05 16:53 50.70171 4.71051 38851 ft 452 kts 110°
2026-05-05 16:53 50.68352 4.80477 38851 ft 452 kts 110°
2026-05-05 16:54 50.66504 4.89958 38842 ft 453 kts 110°
2026-05-05 16:54 50.64604 4.99412 38840 ft 453 kts 111°
2026-05-05 16:55 50.62651 5.08844 38847 ft 453 kts 111°
2026-05-05 16:55 50.60697 5.18276 38843 ft 454 kts 111°
2026-05-05 16:56 50.58753 5.27645 38855 ft 455 kts 111°
2026-05-05 16:56 50.56777 5.37124 38861 ft 456 kts 111°
2026-05-05 16:57 50.54794 5.46594 38870 ft 456 kts 111°
2026-05-05 16:57 50.52804 5.56053 38861 ft 456 kts 111°
2026-05-05 16:58 50.50837 5.65469 38864 ft 457 kts 110°
2026-05-05 16:58 50.49109 5.75101 38864 ft 459 kts 108°
2026-05-05 16:59 50.47403 5.84769 38868 ft 459 kts 109°
2026-05-05 16:59 50.45657 5.94405 38856 ft 459 kts 109°
2026-05-05 17:00 50.43904 6.03960 38852 ft 459 kts 109°
2026-05-05 17:00 50.42129 6.13574 38843 ft 458 kts 109°
2026-05-05 17:01 50.40351 6.23159 38833 ft 458 kts 109°
2026-05-05 17:01 50.38567 6.32726 38810 ft 457 kts 110°
2026-05-05 17:02 50.36782 6.42253 38807 ft 456 kts 110°
2026-05-05 17:02 50.35002 6.51698 38807 ft 455 kts 110°
2026-05-05 17:03 50.33209 6.61167 38804 ft 454 kts 110°
2026-05-05 17:03 50.31404 6.70651 38798 ft 454 kts 110°
2026-05-05 17:04 50.29596 6.80108 38807 ft 453 kts 110°
2026-05-05 17:04 50.27781 6.89548 38820 ft 453 kts 110°
2026-05-05 17:05 50.25972 6.98914 38808 ft 454 kts 110°
2026-05-05 17:05 50.24138 7.08360 38819 ft 454 kts 110°
2026-05-05 17:06 50.22300 7.17785 38817 ft 455 kts 110°
2026-05-05 17:06 50.20445 7.27245 38826 ft 456 kts 110°
2026-05-05 17:07 50.18581 7.36705 38832 ft 457 kts 111°
2026-05-05 17:07 50.16706 7.46176 38838 ft 458 kts 111°
2026-05-05 17:08 50.14831 7.55606 38835 ft 458 kts 111°
2026-05-05 17:08 50.12938 7.65074 38843 ft 458 kts 111°
2026-05-05 17:09 50.11036 7.74541 38839 ft 458 kts 111°
2026-05-05 17:09 50.09128 7.83996 38840 ft 458 kts 111°
2026-05-05 17:10 50.07225 7.93377 38842 ft 457 kts 111°
2026-05-05 17:10 50.05301 8.02817 38846 ft 458 kts 111°
2026-05-05 17:11 50.03377 8.12217 38848 ft 457 kts 111°
2026-05-05 17:11 50.01439 8.21635 38854 ft 457 kts 111°
2026-05-05 17:12 49.99511 8.30961 38848 ft 457 kts 111°
2026-05-05 17:12 49.97562 8.40349 38848 ft 456 kts 111°
2026-05-05 17:13 49.95544 8.49680 38821 ft 454 kts 115°
2026-05-05 17:13 49.92865 8.58498 38820 ft 450 kts 123°
2026-05-05 17:14 49.89762 8.66837 38816 ft 449 kts 123°
2026-05-05 17:14 49.86656 8.75260 38819 ft 450 kts 123°
2026-05-05 17:15 49.83541 8.83659 38820 ft 450 kts 124°
2026-05-05 17:15 49.80411 8.92060 38822 ft 450 kts 124°
2026-05-05 17:16 49.77285 9.00433 38820 ft 450 kts 124°
2026-05-05 17:16 49.74163 9.08772 38827 ft 451 kts 124°
2026-05-05 17:17 49.71017 9.17145 38826 ft 451 kts 124°
2026-05-05 17:17 49.67862 9.25519 38828 ft 451 kts 124°
2026-05-05 17:18 49.64716 9.33838 38827 ft 451 kts 124°
2026-05-05 17:18 49.61374 9.42000 38830 ft 448 kts 130°
2026-05-05 17:19 49.57378 9.49302 38827 ft 445 kts 135°
2026-05-05 17:19 49.53285 9.56452 38829 ft 445 kts 135°
2026-05-05 17:20 49.49200 9.63596 38829 ft 445 kts 135°
2026-05-05 17:20 49.45109 9.70733 38831 ft 445 kts 135°
2026-05-05 17:21 49.41041 9.77813 38828 ft 445 kts 135°
2026-05-05 17:22 49.34888 9.88470 38827 ft 445 kts 135°
2026-05-05 17:22 49.30777 9.95553 38828 ft 445 kts 135°
2026-05-05 17:23 49.26692 10.02575 38828 ft 445 kts 135°
2026-05-05 17:23 49.22575 10.09635 38827 ft 445 kts 136°
2026-05-05 17:24 49.18451 10.16688 38554 ft 445 kts 136°
2026-05-05 17:24 49.16385 10.20219 38282 ft 443 kts 136°
2026-05-05 17:24 49.14336 10.23718 37974 ft 443 kts 136°
2026-05-05 17:24 49.12256 10.27190 37309 ft 445 kts 137°
2026-05-05 17:25 49.10121 10.30619 36608 ft 445 kts 137°
2026-05-05 17:25 49.08702 10.32875 36145 ft 445 kts 137°
2026-05-05 17:25 49.05864 10.37389 35145 ft 446 kts 137°
2026-05-05 17:25 49.03723 10.40807 34614 ft 442 kts 137°
2026-05-05 17:26 49.01627 10.44162 34313 ft 433 kts 137°
2026-05-05 17:26 48.99552 10.47482 33669 ft 433 kts 137°
2026-05-05 17:26 48.97463 10.50811 32686 ft 438 kts 137°
2026-05-05 17:26 48.95354 10.54168 31937 ft 438 kts 137°
2026-05-05 17:27 48.93248 10.57517 31130 ft 439 kts 137°
2026-05-05 17:27 48.91174 10.60816 30565 ft 435 kts 137°
2026-05-05 17:27 48.89095 10.64120 29899 ft 433 kts 137°
2026-05-05 17:27 48.87028 10.67401 29271 ft 429 kts 137°
2026-05-05 17:28 48.84964 10.70672 28634 ft 424 kts 137°
2026-05-05 17:28 48.82933 10.73887 28013 ft 420 kts 137°
2026-05-05 17:28 48.80918 10.77072 27403 ft 416 kts 137°
2026-05-05 17:28 48.78919 10.80221 26575 ft 414 kts 137°
2026-05-05 17:29 48.76891 10.83399 25084 ft 423 kts 137°
2026-05-05 17:29 48.74851 10.86588 23662 ft 433 kts 137°
2026-05-05 17:29 48.72759 10.89862 22520 ft 429 kts 136°
2026-05-05 17:29 48.70703 10.93080 21527 ft 422 kts 136°
2026-05-05 17:30 48.68676 10.96250 20537 ft 415 kts 136°
2026-05-05 17:30 48.66680 10.99363 19560 ft 410 kts 137°
2026-05-05 17:30 48.64707 11.02432 18617 ft 405 kts 137°
2026-05-05 17:30 48.62759 11.05459 17847 ft 395 kts 137°
2026-05-05 17:31 48.60909 11.08338 17688 ft 370 kts 137°
2026-05-05 17:31 48.59101 11.11137 17550 ft 375 kts 138°
2026-05-05 17:31 48.57181 11.13690 17394 ft 370 kts 146°
2026-05-05 17:31 48.55092 11.15882 17075 ft 360 kts 147°
2026-05-05 17:32 48.53303 11.18467 16606 ft 357 kts 129°
2026-05-05 17:32 48.52150 11.21796 15642 ft 365 kts 111°
2026-05-05 17:32 48.51552 11.25546 14781 ft 367 kts 102°
2026-05-05 17:32 48.51184 11.29281 14296 ft 355 kts 100°
2026-05-05 17:33 48.50852 11.32948 13629 ft 351 kts 101°
2026-05-05 17:33 48.50503 11.36562 12868 ft 347 kts 101°
2026-05-05 17:33 48.50136 11.40089 12113 ft 343 kts 102°
2026-05-05 17:33 48.49749 11.43617 11407 ft 340 kts 102°
2026-05-05 17:34 48.49361 11.47078 11244 ft 337 kts 102°
2026-05-05 17:34 48.48964 11.50571 11114 ft 337 kts 102°
2026-05-05 17:34 48.48568 11.54044 10686 ft 336 kts 102°
2026-05-05 17:34 48.48171 11.57510 10094 ft 334 kts 102°
2026-05-05 17:35 48.47788 11.60876 9860 ft 316 kts 102°
2026-05-05 17:35 48.47426 11.64047 9615 ft 300 kts 103°
2026-05-05 17:35 48.47072 11.67124 9055 ft 296 kts 102°
2026-05-05 17:35 48.46718 11.70167 8478 ft 293 kts 102°
2026-05-05 17:36 48.46373 11.73130 7952 ft 290 kts 102°
2026-05-05 17:36 48.46022 11.76151 7411 ft 288 kts 102°
2026-05-05 17:36 48.45682 11.79071 7061 ft 286 kts 102°
2026-05-05 17:36 48.45383 11.82028 6690 ft 285 kts 95°
2026-05-05 17:37 48.45423 11.84999 6355 ft 284 kts 84°
2026-05-05 17:37 48.45584 11.86963 6103 ft 284 kts 84°
2026-05-05 17:37 48.45894 11.90904 5610 ft 282 kts 84°
2026-05-05 17:37 48.46116 11.93836 5253 ft 281 kts 84°
2026-05-05 17:38 48.46333 11.96746 4908 ft 279 kts 84°
2026-05-05 17:38 48.46548 11.99650 4568 ft 277 kts 83°
2026-05-05 17:38 48.46761 12.02530 4226 ft 276 kts 83°
2026-05-05 17:38 48.46967 12.05330 4090 ft 274 kts 83°
2026-05-05 17:39 48.47179 12.08210 4007 ft 276 kts 82°
2026-05-05 17:39 48.47392 12.11075 4001 ft 275 kts 82°
2026-05-05 17:39 48.47409 12.13948 3998 ft 277 kts 101°
2026-05-05 17:39 48.46618 12.16578 4004 ft 278 kts 127°
2026-05-05 17:40 48.45180 12.18488 3997 ft 277 kts 154°
2026-05-05 17:40 48.43347 12.19258 4001 ft 276 kts 174°
2026-05-05 17:40 48.41445 12.19626 3994 ft 275 kts 174°
2026-05-05 17:40 48.39598 12.19438 4002 ft 270 kts 203°
2026-05-05 17:41 48.38134 12.17773 3997 ft 265 kts 238°
2026-05-05 17:41 48.37582 12.15194 4000 ft 261 kts 272°
2026-05-05 17:41 48.37824 12.12576 3987 ft 245 kts 282°
2026-05-05 17:41 48.38137 12.10190 4001 ft 220 kts 282°
2026-05-05 17:42 48.38374 12.08038 4000 ft 198 kts 277°
2026-05-05 17:42 48.38428 12.06082 4012 ft 183 kts 271°
2026-05-05 17:42 48.38358 12.04145 3999 ft 185 kts 267°
2026-05-05 17:42 48.38227 12.02249 3997 ft 185 kts 265°
2026-05-05 17:43 48.38081 12.00352 3811 ft 183 kts 266°
2026-05-05 17:43 48.37935 11.98431 3558 ft 183 kts 265°
2026-05-05 17:43 48.37793 11.96580 3345 ft 168 kts 266°
2026-05-05 17:43 48.37667 11.94952 3135 ft 147 kts 266°
2026-05-05 17:44 48.37555 11.93504 2943 ft 132 kts 266°
2026-05-05 17:44 48.37454 11.92151 2774 ft 131 kts 267°
2026-05-05 17:44 48.37351 11.90794 2602 ft 130 kts 267°
2026-05-05 17:44 48.37251 11.89460 2443 ft 131 kts 266°
2026-05-05 17:45 48.37149 11.88095 2258 ft 130 kts 266°
2026-05-05 17:45 48.37048 11.86736 2095 ft 131 kts 265°
2026-05-05 17:45 48.36943 11.85373 1909 ft 132 kts 263°
2026-05-05 17:45 48.36831 11.84000 1750 ft 132 kts 265°
2026-05-05 17:46 48.36725 11.82637 1605 ft 131 kts 266°
2026-05-05 17:46 48.36624 11.81287 1481 ft 126 kts 266°
2026-05-05 17:46 48.36553 11.80353 1485 ft 53 kts 263°
2026-05-05 17:46 48.36512 11.79908 1482 ft 25 kts 253°
2026-05-05 17:47 48.36433 11.79662 1473 ft 27 kts 231°
2026-05-05 17:47 48.36338 11.79473 1473 ft 22 kts 234°
2026-05-05 17:47 48.36239 11.79307 1485 ft 9 kts 199°
2026-05-05 17:47 48.36221 11.79318 1476 ft 4 kts 135°
2026-05-05 17:48 48.36175 11.79312 1485 ft 15 kts 191°
2026-05-05 17:48 48.36049 11.79323 1478 ft 20 kts 174°
2026-05-05 17:48 48.35921 11.79354 1477 ft 11 kts 150°
2026-05-05 17:48 48.35851 11.79385 1485 ft 12 kts 176°
2026-05-05 17:49 48.35736 11.79404 1485 ft 21 kts 173°
2026-05-05 17:49 48.35580 11.79432 1485 ft 24 kts 173°
2026-05-05 17:49 48.35509 11.79422 1474 ft 6 kts 240°
2026-05-05 17:49 48.35502 11.79344 1473 ft 9 kts 263°
2026-05-05 17:50 48.35497 11.79293 1482 ft 0 kts 263°